Retour au catalogue

CZ-4 DEB

ActifSSO
NORAD 26198·DEBRIS·🇨🇳 China

Lancé Oct 14, 1999 depuis Taiyuan Satellite Launch Center

Loading…

Prochains Passages (prochaines 24 heures)

TLE

FraisSource: Space-Track

Époque: Sep 14, 2026, 02:04 UTC

1 26198U 99057CL  26257.08617243  .00000936  00000-0  22868-3 0  9996
2 26198  98.5104 314.0943 0067130 181.9384 178.1562 14.53658697395449

Suivez CZ-4 DEB en temps réel avec AllMySat

Download on the App Store